Location: Unspecified
(43.4680°N, 87.1740°E)
Time: 03:46:04
(UTC+00:00)

Cosmos 2219 - Pass Details

Date: 17 April 2021
Orbit: 834 x 860 km, 71.1° (Epoch: 16 May)

Event Time Altitude Azimuth Distance (km) Brightness Sun altitude
Exits shadow 15:15:19 45° 94° (E) 1,128 3.5 -22.7°
Drops below altitude 10° 15:20:13 10° 36° (NE) 2,453 5.7 -23.4°
Sets 15:22:45 0° 31° (NNE) 3,393 6.5 -23.7°
